Year,Month,Day,Hour,Minute,Value (Times are PST for barometer in hPa)
2016,10,14,00,00,980.66
2016,10,14,00,01,980.60
2016,10,14,00,02,980.43
2016,10,14,00,03,980.33
2016,10,14,00,04,980.32
2016,10,14,00,05,980.03
2016,10,14,00,06,980.21
2016,10,14,00,07,980.08
2016,10,14,00,08,979.92
2016,10,14,00,09,979.91
2016,10,14,00,10,979.76
2016,10,14,00,11,979.88
2016,10,14,00,12,979.75
2016,10,14,00,13,979.82
2016,10,14,00,14,979.66
2016,10,14,00,15,979.78
2016,10,14,00,16,979.78
2016,10,14,00,17,979.89
2016,10,14,00,18,979.92
2016,10,14,00,19,979.85
2016,10,14,00,22,980.02
2016,10,14,00,23,980.12
2016,10,14,00,24,980.12
2016,10,14,00,25,980.22
2016,10,14,00,26,980.16
2016,10,14,00,27,980.09
2016,10,14,00,28,980.13
2016,10,14,00,29,980.33
2016,10,14,00,30,980.33
2016,10,14,00,31,980.46
2016,10,14,00,32,980.46
2016,10,14,00,33,980.46
2016,10,14,00,34,980.46
2016,10,14,00,35,980.36
2016,10,14,00,36,980.33
2016,10,14,00,37,980.36
2016,10,14,00,38,980.37
2016,10,14,00,39,980.50
2016,10,14,00,40,980.50
2016,10,14,00,41,980.39
2016,10,14,00,42,980.36
2016,10,14,00,43,980.39
2016,10,14,00,44,980.39
2016,10,14,00,45,980.46
2016,10,14,00,46,980.43
2016,10,14,00,47,980.50
2016,10,14,00,48,980.39
2016,10,14,00,49,980.36
2016,10,14,00,50,980.56
2016,10,14,00,51,980.52
2016,10,14,00,52,980.36
2016,10,14,00,53,980.39
2016,10,14,00,54,980.50
2016,10,14,00,55,980.43
2016,10,14,00,56,980.26
2016,10,14,00,57,980.50
2016,10,14,00,58,980.50
2016,10,14,00,59,980.50
2016,10,14,01,00,980.46
2016,10,14,01,01,980.46
2016,10,14,01,02,980.36
2016,10,14,01,03,980.43
2016,10,14,01,04,980.36
2016,10,14,01,05,980.36
2016,10,14,01,06,980.36
2016,10,14,01,07,980.26
2016,10,14,01,08,980.29
2016,10,14,01,09,980.36
2016,10,14,01,10,980.29
2016,10,14,01,11,980.16
2016,10,14,01,12,980.22
2016,10,14,01,13,980.29
2016,10,14,01,14,980.16
2016,10,14,01,15,980.17
2016,10,14,01,16,980.33
2016,10,14,01,17,980.26
2016,10,14,01,18,980.27
2016,10,14,01,19,980.36
2016,10,14,01,20,980.43
2016,10,14,01,21,980.29
2016,10,14,01,22,980.22
2016,10,14,01,23,980.29
2016,10,14,01,24,980.30
2016,10,14,01,25,980.49
2016,10,14,01,26,980.39
2016,10,14,01,27,980.73
2016,10,14,01,28,980.43
2016,10,14,01,29,980.50
2016,10,14,01,30,980.67
2016,10,14,01,31,980.82
2016,10,14,01,32,980.70
2016,10,14,01,33,980.97
2016,10,14,01,34,980.97
2016,10,14,01,35,980.99
2016,10,14,01,36,981.44
2016,10,14,01,37,981.17
2016,10,14,01,38,981.44
2016,10,14,01,39,981.25
2016,10,14,01,40,981.38
2016,10,14,01,41,981.58
2016,10,14,01,42,981.39
2016,10,14,01,43,981.65
2016,10,14,01,44,981.61
2016,10,14,01,45,981.49
2016,10,14,01,46,981.69
2016,10,14,01,47,981.85
2016,10,14,01,48,981.77
2016,10,14,01,49,981.65
2016,10,14,01,50,981.65
2016,10,14,01,51,981.83
2016,10,14,01,52,981.99
2016,10,14,01,53,981.75
2016,10,14,01,54,981.82
2016,10,14,01,55,982.26
2016,10,14,01,56,982.28
2016,10,14,01,57,982.15
2016,10,14,01,58,982.29
2016,10,14,01,59,982.27
2016,10,14,02,00,982.49
2016,10,14,02,01,982.43
2016,10,14,02,02,982.53
2016,10,14,02,03,982.56
2016,10,14,02,04,982.70
2016,10,14,02,05,982.66
2016,10,14,02,06,982.70
2016,10,14,02,07,982.66
2016,10,14,02,08,982.66
2016,10,14,02,09,982.66
2016,10,14,02,10,982.66
2016,10,14,02,11,982.70
2016,10,14,02,12,982.66
2016,10,14,02,13,982.66
2016,10,14,02,14,982.76
2016,10,14,02,15,982.70
2016,10,14,02,16,982.73
2016,10,14,02,17,982.76
2016,10,14,02,18,982.80
2016,10,14,02,19,982.90
2016,10,14,02,20,982.87
2016,10,14,02,21,982.83
2016,10,14,02,22,982.80
2016,10,14,02,23,983.00
2016,10,14,02,24,983.07
2016,10,14,02,25,983.14
2016,10,14,02,26,983.07
2016,10,14,02,27,983.10
2016,10,14,02,28,983.04
2016,10,14,02,29,983.00
2016,10,14,02,30,983.21
2016,10,14,02,31,983.37
2016,10,14,02,32,983.20
2016,10,14,02,33,983.14
2016,10,14,02,34,983.15
2016,10,14,02,35,983.37
2016,10,14,02,36,983.41
2016,10,14,02,37,983.61
2016,10,14,02,38,983.58
2016,10,14,02,39,983.51
2016,10,14,02,40,983.52
2016,10,14,02,41,983.64
2016,10,14,02,42,983.61
2016,10,14,02,43,983.62
2016,10,14,02,44,983.81
2016,10,14,02,45,983.88
2016,10,14,02,46,983.95
2016,10,14,02,47,983.98
2016,10,14,02,48,984.05
2016,10,14,02,49,984.05
2016,10,14,02,50,984.05
2016,10,14,02,51,984.08
2016,10,14,02,52,984.02
2016,10,14,02,53,984.08
2016,10,14,02,54,984.05
2016,10,14,02,55,984.02
2016,10,14,02,56,984.05
2016,10,14,02,57,984.08
2016,10,14,02,58,984.19
2016,10,14,02,59,984.19
2016,10,14,03,00,984.15
2016,10,14,03,01,984.15
2016,10,14,03,02,984.19
2016,10,14,03,03,984.22
2016,10,14,03,04,984.29
2016,10,14,03,05,984.29
2016,10,14,03,06,984.25
2016,10,14,03,07,984.32
2016,10,14,03,08,984.36
2016,10,14,03,09,984.36
2016,10,14,03,10,984.39
2016,10,14,03,11,984.42
2016,10,14,03,12,984.42
2016,10,14,03,13,984.36
2016,10,14,03,14,984.39
2016,10,14,03,15,984.39
2016,10,14,03,16,984.39
2016,10,14,03,17,984.46
2016,10,14,03,18,984.46
2016,10,14,03,19,984.42
2016,10,14,03,20,984.29
2016,10,14,03,21,984.39
2016,10,14,03,22,984.36
2016,10,14,03,23,984.41
2016,10,14,03,24,984.32
2016,10,14,03,25,984.42
2016,10,14,03,26,984.46
2016,10,14,03,27,984.40
2016,10,14,03,28,984.49
2016,10,14,03,29,984.42
2016,10,14,03,30,984.46
2016,10,14,03,31,984.49
2016,10,14,03,32,984.42
2016,10,14,03,33,984.46
2016,10,14,03,34,984.46
2016,10,14,03,35,984.49
2016,10,14,03,36,984.49
2016,10,14,03,37,984.46
2016,10,14,03,38,984.49
2016,10,14,03,39,984.46
2016,10,14,03,40,984.49
2016,10,14,03,41,984.39
2016,10,14,03,42,984.49
2016,10,14,03,43,984.53
2016,10,14,03,44,984.56
2016,10,14,03,45,984.57
2016,10,14,03,46,984.66
2016,10,14,03,47,984.59
2016,10,14,03,48,984.63
2016,10,14,03,49,984.59
2016,10,14,03,50,984.66
2016,10,14,03,51,984.73
2016,10,14,03,52,984.76
2016,10,14,03,53,984.66
2016,10,14,03,54,984.69
2016,10,14,03,55,984.69
2016,10,14,03,56,984.70
2016,10,14,03,57,984.80
2016,10,14,03,58,984.89
2016,10,14,03,59,984.73
2016,10,14,04,00,984.73
2016,10,14,04,01,984.80
2016,10,14,04,02,984.97
2016,10,14,04,03,984.90
2016,10,14,04,04,984.85
2016,10,14,04,05,984.73
2016,10,14,04,06,984.66
2016,10,14,04,07,984.66
2016,10,14,04,08,984.69
2016,10,14,04,09,984.76
2016,10,14,04,10,984.76
2016,10,14,04,11,984.73
2016,10,14,04,12,984.73
2016,10,14,04,13,984.83
2016,10,14,04,14,984.73
2016,10,14,04,15,984.66
2016,10,14,04,16,984.73
2016,10,14,04,17,984.80
2016,10,14,04,18,984.73
2016,10,14,04,19,984.59
2016,10,14,04,20,984.56
2016,10,14,04,21,984.50
2016,10,14,04,22,984.66
2016,10,14,04,23,984.46
2016,10,14,04,24,984.42
2016,10,14,04,25,984.36
2016,10,14,04,26,984.42
2016,10,14,04,27,984.46
2016,10,14,04,28,984.39
2016,10,14,04,29,984.41
2016,10,14,04,30,984.32
2016,10,14,04,31,984.46
2016,10,14,04,32,984.42
2016,10,14,04,33,984.49
2016,10,14,04,34,984.39
2016,10,14,04,35,984.42
2016,10,14,04,36,984.41
2016,10,14,04,37,984.29
2016,10,14,04,38,984.42
2016,10,14,04,39,984.46
2016,10,14,04,40,984.39
2016,10,14,04,41,984.39
2016,10,14,04,42,984.33
2016,10,14,04,43,984.42
2016,10,14,04,44,984.49
2016,10,14,04,45,984.49
2016,10,14,04,46,984.46
2016,10,14,04,47,984.49
2016,10,14,04,48,984.56
2016,10,14,04,49,984.46
2016,10,14,04,50,984.42
2016,10,14,04,51,984.46
2016,10,14,04,52,984.53
2016,10,14,04,53,984.59
2016,10,14,04,54,984.80
2016,10,14,04,55,984.76
2016,10,14,04,56,984.93
2016,10,14,04,57,985.07
2016,10,14,04,58,985.00
2016,10,14,04,59,984.93
2016,10,14,05,00,984.97
2016,10,14,05,01,985.00
2016,10,14,05,02,984.97
2016,10,14,05,03,985.01
2016,10,14,05,04,985.13
2016,10,14,05,05,985.13
2016,10,14,05,06,985.27
2016,10,14,05,07,985.20
2016,10,14,05,08,985.14
2016,10,14,05,09,985.30
2016,10,14,05,10,985.30
2016,10,14,05,11,985.30
2016,10,14,05,12,985.30
2016,10,14,05,13,985.34
2016,10,14,05,14,985.34
2016,10,14,05,15,985.34
2016,10,14,05,16,985.30
2016,10,14,05,17,985.34
2016,10,14,05,18,985.42
2016,10,14,05,19,985.54
2016,10,14,05,20,985.34
2016,10,14,05,21,985.45
2016,10,14,05,22,985.10
2016,10,14,05,23,985.30
2016,10,14,05,24,985.27
2016,10,14,05,25,984.88
2016,10,14,05,26,985.24
2016,10,14,05,27,985.27
2016,10,14,05,28,985.27
2016,10,14,05,29,985.20
2016,10,14,05,30,985.17
2016,10,14,05,31,985.20
2016,10,14,05,32,985.20
2016,10,14,05,33,985.17
2016,10,14,05,34,985.17
2016,10,14,05,35,985.07
2016,10,14,05,36,985.10
2016,10,14,05,37,984.97
2016,10,14,05,38,985.07
2016,10,14,05,39,985.00
2016,10,14,05,40,984.93
2016,10,14,05,41,984.86
2016,10,14,05,42,984.86
2016,10,14,05,43,984.83
2016,10,14,05,44,984.80
2016,10,14,05,45,984.76
2016,10,14,05,46,984.76
2016,10,14,05,47,984.76
2016,10,14,05,48,984.80
2016,10,14,05,49,984.80
2016,10,14,05,50,984.83
2016,10,14,05,51,984.80
2016,10,14,05,52,984.73
2016,10,14,05,53,984.73
2016,10,14,05,54,984.69
2016,10,14,05,55,984.80
2016,10,14,05,56,984.76
2016,10,14,05,57,984.76
2016,10,14,05,58,984.80
2016,10,14,05,59,984.73
2016,10,14,06,00,984.76
2016,10,14,06,01,984.73
2016,10,14,06,02,984.76
2016,10,14,06,03,984.76
2016,10,14,06,04,984.76
2016,10,14,06,05,984.73
2016,10,14,06,06,984.73
2016,10,14,06,07,984.69
2016,10,14,06,08,984.73
2016,10,14,06,09,984.69
2016,10,14,06,10,984.73
2016,10,14,06,11,984.76
2016,10,14,06,12,984.80
2016,10,14,06,13,984.83
2016,10,14,06,14,984.80
2016,10,14,06,15,984.69
2016,10,14,06,16,984.73
2016,10,14,06,17,984.76
2016,10,14,06,18,984.73
2016,10,14,06,19,984.69
2016,10,14,06,20,984.77
2016,10,14,06,21,984.86
2016,10,14,06,22,984.97
2016,10,14,06,23,984.93
2016,10,14,06,24,985.03
2016,10,14,06,25,985.03
2016,10,14,06,26,985.07
2016,10,14,06,27,985.13
2016,10,14,06,28,985.10
2016,10,14,06,29,985.03
2016,10,14,06,30,985.03
2016,10,14,06,31,984.97
2016,10,14,06,32,984.83
2016,10,14,06,33,984.73
2016,10,14,06,34,984.66
2016,10,14,06,35,984.66
2016,10,14,06,36,984.59
2016,10,14,06,37,984.53
2016,10,14,06,38,984.56
2016,10,14,06,39,984.56
2016,10,14,06,40,984.56
2016,10,14,06,41,984.53
2016,10,14,06,42,984.46
2016,10,14,06,43,984.53
2016,10,14,06,44,984.46
2016,10,14,06,45,984.36
2016,10,14,06,46,984.32
2016,10,14,06,47,984.29
2016,10,14,06,48,984.39
2016,10,14,06,49,984.36
2016,10,14,06,50,984.46
2016,10,14,06,51,984.53
2016,10,14,06,52,984.56
2016,10,14,06,53,984.49
2016,10,14,06,54,984.56
2016,10,14,06,55,984.55
2016,10,14,06,56,984.46
2016,10,14,06,57,984.42
2016,10,14,06,58,984.46
2016,10,14,06,59,984.36
2016,10,14,07,00,984.39
2016,10,14,07,01,984.46
2016,10,14,07,02,984.59
2016,10,14,07,03,984.59
2016,10,14,07,04,984.59
2016,10,14,07,05,984.56
2016,10,14,07,06,984.53
2016,10,14,07,07,984.73
2016,10,14,07,08,984.80
2016,10,14,07,09,984.73
2016,10,14,07,10,984.53
2016,10,14,07,11,984.63
2016,10,14,07,12,984.59
2016,10,14,07,13,984.63
2016,10,14,07,14,984.63
2016,10,14,07,15,984.59
2016,10,14,07,16,984.49
2016,10,14,07,17,984.39
2016,10,14,07,18,984.59
2016,10,14,07,19,984.63
2016,10,14,07,20,984.63
2016,10,14,07,21,984.86
2016,10,14,07,22,984.80
2016,10,14,07,23,984.92
2016,10,14,07,24,984.83
2016,10,14,07,25,984.75
2016,10,14,07,26,984.63
2016,10,14,07,27,984.69
2016,10,14,07,28,984.66
2016,10,14,07,29,984.63
2016,10,14,07,30,984.59
2016,10,14,07,31,984.59
2016,10,14,07,32,984.49
2016,10,14,07,33,984.53
2016,10,14,07,34,984.53
2016,10,14,07,35,984.56
2016,10,14,07,36,984.58
2016,10,14,07,37,984.45
2016,10,14,07,38,984.29
2016,10,14,07,39,984.25
2016,10,14,07,40,984.22
2016,10,14,07,41,984.22
2016,10,14,07,42,984.29
2016,10,14,07,43,984.43
2016,10,14,07,44,984.55
2016,10,14,07,45,984.39
2016,10,14,07,46,984.36
2016,10,14,07,47,984.26
2016,10,14,07,48,984.36
2016,10,14,07,49,984.36
2016,10,14,07,50,984.32
2016,10,14,07,51,984.25
2016,10,14,07,52,984.29
2016,10,14,07,53,984.49
2016,10,14,07,54,984.49
2016,10,14,07,55,984.46
2016,10,14,07,56,984.49
2016,10,14,07,57,984.53
2016,10,14,07,58,984.56
2016,10,14,07,59,984.59
2016,10,14,08,00,984.56
2016,10,14,08,01,984.56
2016,10,14,08,02,984.53
2016,10,14,08,03,984.49
2016,10,14,08,04,984.53
2016,10,14,08,05,984.46
2016,10,14,08,06,984.53
2016,10,14,08,07,984.59
2016,10,14,08,08,984.59
2016,10,14,08,09,984.66
2016,10,14,08,10,984.90
2016,10,14,08,11,984.76
2016,10,14,08,12,984.53
2016,10,14,08,13,984.53
2016,10,14,08,14,984.53
2016,10,14,08,15,984.56
2016,10,14,08,16,984.62
2016,10,14,08,17,984.53
2016,10,14,08,18,984.53
2016,10,14,08,19,984.53
2016,10,14,08,20,984.49
2016,10,14,08,21,984.56
2016,10,14,08,22,984.53
2016,10,14,08,23,984.49
2016,10,14,08,24,984.53
2016,10,14,08,25,984.56
2016,10,14,08,26,984.56
2016,10,14,08,27,984.53
2016,10,14,08,28,984.53
2016,10,14,08,29,984.49
2016,10,14,08,30,984.49
2016,10,14,08,31,984.46
2016,10,14,08,32,984.53
2016,10,14,08,33,984.53
2016,10,14,08,34,984.56
2016,10,14,08,35,984.53
2016,10,14,08,36,984.49
2016,10,14,08,37,984.53
2016,10,14,08,38,984.49
2016,10,14,08,39,984.56
2016,10,14,08,40,984.53
2016,10,14,08,41,984.49
2016,10,14,08,42,984.53
2016,10,14,08,43,984.56
2016,10,14,08,44,984.56
2016,10,14,08,45,984.59
2016,10,14,08,46,984.56
2016,10,14,08,47,984.53
2016,10,14,08,48,984.53
2016,10,14,08,49,984.53
2016,10,14,08,50,984.49
2016,10,14,08,51,984.42
2016,10,14,08,52,984.39
2016,10,14,08,53,984.30
2016,10,14,08,54,984.49
2016,10,14,08,55,984.49
2016,10,14,08,56,984.49
2016,10,14,08,57,984.42
2016,10,14,08,58,984.25
2016,10,14,08,59,984.25
2016,10,14,09,00,984.25
2016,10,14,09,01,984.29
2016,10,14,09,02,984.33
2016,10,14,09,03,984.46
2016,10,14,09,04,984.49
2016,10,14,09,05,984.46
2016,10,14,09,06,984.41
2016,10,14,09,07,984.32
2016,10,14,09,08,984.29
2016,10,14,09,09,984.29
2016,10,14,09,10,984.25
2016,10,14,09,11,984.25
2016,10,14,09,12,983.89
2016,10,14,09,13,984.02
2016,10,14,09,14,984.08
2016,10,14,09,15,983.98
2016,10,14,09,16,984.08
2016,10,14,09,17,984.12
2016,10,14,09,18,984.12
2016,10,14,09,19,983.98
2016,10,14,09,20,984.12
2016,10,14,09,21,984.15
2016,10,14,09,22,984.15
2016,10,14,09,23,984.32
2016,10,14,09,24,984.32
2016,10,14,09,25,984.36
2016,10,14,09,26,984.42
2016,10,14,09,27,984.42
2016,10,14,09,28,984.46
2016,10,14,09,29,984.36
2016,10,14,09,30,984.49
2016,10,14,09,31,984.46
2016,10,14,09,32,984.42
2016,10,14,09,33,984.42
2016,10,14,09,34,984.41
2016,10,14,09,35,984.19
2016,10,14,09,36,984.22
2016,10,14,09,37,984.25
2016,10,14,09,38,984.29
2016,10,14,09,39,984.15
2016,10,14,09,40,984.19
2016,10,14,09,41,984.15
2016,10,14,09,42,984.15
2016,10,14,09,43,984.08
2016,10,14,09,44,984.05
2016,10,14,09,45,984.08
2016,10,14,09,46,984.12
2016,10,14,09,47,984.19
2016,10,14,09,48,984.25
2016,10,14,09,49,984.32
2016,10,14,09,50,984.39
2016,10,14,09,51,984.29
2016,10,14,09,52,984.22
2016,10,14,09,53,984.15
2016,10,14,09,54,984.01
2016,10,14,09,55,983.85
2016,10,14,09,56,983.78
2016,10,14,09,57,983.85
2016,10,14,09,58,983.95
2016,10,14,09,59,983.92
2016,10,14,10,00,983.98
2016,10,14,10,01,983.92
2016,10,14,10,02,983.87
2016,10,14,10,03,983.76
2016,10,14,10,04,983.88
2016,10,14,10,05,983.92
2016,10,14,10,06,983.95
2016,10,14,10,07,983.98
2016,10,14,10,08,984.05
2016,10,14,10,09,984.02
2016,10,14,10,10,984.01
2016,10,14,10,11,983.88
2016,10,14,10,12,983.95
2016,10,14,10,13,983.95
2016,10,14,10,14,983.85
2016,10,14,10,15,983.88
2016,10,14,10,16,983.78
2016,10,14,10,17,983.85
2016,10,14,10,18,983.78
2016,10,14,10,19,983.85
2016,10,14,10,20,983.88
2016,10,14,10,21,983.88
2016,10,14,10,22,983.95
2016,10,14,10,23,983.95
2016,10,14,10,24,983.85
2016,10,14,10,25,983.95
2016,10,14,10,26,983.88
2016,10,14,10,27,983.95
2016,10,14,10,28,983.95
2016,10,14,10,29,983.98
2016,10,14,10,30,984.02
2016,10,14,10,31,984.05
2016,10,14,10,32,984.02
2016,10,14,10,33,984.02
2016,10,14,10,34,984.08
2016,10,14,10,35,984.02
2016,10,14,10,36,984.05
2016,10,14,10,37,984.05
2016,10,14,10,38,983.95
2016,10,14,10,39,983.97
2016,10,14,10,40,983.88
2016,10,14,10,41,983.98
2016,10,14,10,42,983.92
2016,10,14,10,43,983.92
2016,10,14,10,44,983.95
2016,10,14,10,45,983.98
2016,10,14,10,46,983.98
2016,10,14,10,47,983.98
2016,10,14,10,48,983.95
2016,10,14,10,49,984.05
2016,10,14,10,50,984.05
2016,10,14,10,51,984.02
2016,10,14,10,52,984.02
2016,10,14,10,53,983.92
2016,10,14,10,54,983.98
2016,10,14,10,55,983.98
2016,10,14,10,56,983.92
2016,10,14,10,57,983.92
2016,10,14,10,58,983.92
2016,10,14,10,59,983.88
2016,10,14,11,00,983.92
2016,10,14,11,01,983.88
2016,10,14,11,02,983.95
2016,10,14,11,03,983.92
2016,10,14,11,04,983.88
2016,10,14,11,05,983.75
2016,10,14,11,06,983.78
2016,10,14,11,07,983.68
2016,10,14,11,08,983.71
2016,10,14,11,09,983.71
2016,10,14,11,10,983.68
2016,10,14,11,11,983.64
2016,10,14,11,12,983.61
2016,10,14,11,13,983.64
2016,10,14,11,14,983.64
2016,10,14,11,15,983.64
2016,10,14,11,16,983.58
2016,10,14,11,17,983.61
2016,10,14,11,18,983.61
2016,10,14,11,19,983.68
2016,10,14,11,20,983.61
2016,10,14,11,21,983.68
2016,10,14,11,22,983.58
2016,10,14,11,23,983.54
2016,10,14,11,24,983.51
2016,10,14,11,25,983.58
2016,10,14,11,26,983.51
2016,10,14,11,27,983.54
2016,10,14,11,28,983.41
2016,10,14,11,29,983.34
2016,10,14,11,30,983.41
2016,10,14,11,31,983.31
2016,10,14,11,32,983.37
2016,10,14,11,33,983.41
2016,10,14,11,34,983.37
2016,10,14,11,35,983.31
2016,10,14,11,36,983.37
2016,10,14,11,37,983.34
2016,10,14,11,38,983.34
2016,10,14,11,39,983.34
2016,10,14,11,40,983.34
2016,10,14,11,41,983.37
2016,10,14,11,42,983.31
2016,10,14,11,43,983.14
2016,10,14,11,44,983.10
2016,10,14,11,45,983.14
2016,10,14,11,46,983.14
2016,10,14,11,47,983.07
2016,10,14,11,48,983.20
2016,10,14,11,49,983.08
2016,10,14,11,50,983.07
2016,10,14,11,51,983.03
2016,10,14,11,52,982.93
2016,10,14,11,53,982.97
2016,10,14,11,54,982.77
2016,10,14,11,55,982.90
2016,10,14,11,56,982.76
2016,10,14,11,57,982.80
2016,10,14,11,58,982.73
2016,10,14,11,59,982.70
2016,10,14,12,00,982.70
2016,10,14,12,01,982.59
2016,10,14,12,02,982.73
2016,10,14,12,03,982.66
2016,10,14,12,04,982.63
2016,10,14,12,05,982.56
2016,10,14,12,06,982.59
2016,10,14,12,07,982.49
2016,10,14,12,08,982.49
2016,10,14,12,09,982.56
2016,10,14,12,10,982.50
2016,10,14,12,11,982.66
2016,10,14,12,12,982.56
2016,10,14,12,13,982.59
2016,10,14,12,14,982.53
2016,10,14,12,15,982.43
2016,10,14,12,16,982.56
2016,10,14,12,17,982.53
2016,10,14,12,18,982.59
2016,10,14,12,19,982.66
2016,10,14,12,20,982.59
2016,10,14,12,21,982.49
2016,10,14,12,22,982.48
2016,10,14,12,23,982.39
2016,10,14,12,24,982.36
2016,10,14,12,25,982.43
2016,10,14,12,26,982.36
2016,10,14,12,27,982.32
2016,10,14,12,28,982.43
2016,10,14,12,29,982.49
2016,10,14,12,30,982.49
2016,10,14,12,31,982.43
2016,10,14,12,32,982.49
2016,10,14,12,33,982.36
2016,10,14,12,34,982.26
2016,10,14,12,35,982.26
2016,10,14,12,36,982.26
2016,10,14,12,37,982.15
2016,10,14,12,38,982.12
2016,10,14,12,39,982.05
2016,10,14,12,40,982.05
2016,10,14,12,41,982.09
2016,10,14,12,42,982.22
2016,10,14,12,43,982.26
2016,10,14,12,44,982.26
2016,10,14,12,45,982.22
2016,10,14,12,46,982.26
2016,10,14,12,47,982.15
2016,10,14,12,48,982.15
2016,10,14,12,49,982.26
2016,10,14,12,50,982.22
2016,10,14,12,51,982.26
2016,10,14,12,52,982.29
2016,10,14,12,53,982.22
2016,10,14,12,54,982.26
2016,10,14,12,55,982.15
2016,10,14,12,56,982.15
2016,10,14,12,57,982.26
2016,10,14,12,58,982.19
2016,10,14,12,59,982.12
2016,10,14,13,00,982.09
2016,10,14,13,01,982.12
2016,10,14,13,02,982.12
2016,10,14,13,03,982.12
2016,10,14,13,04,982.05
2016,10,14,13,05,982.05
2016,10,14,13,06,982.15
2016,10,14,13,07,982.19
2016,10,14,13,08,982.19
2016,10,14,13,09,981.99
2016,10,14,13,10,981.95
2016,10,14,13,11,981.99
2016,10,14,13,12,981.95
2016,10,14,13,13,981.95
2016,10,14,13,14,981.92
2016,10,14,13,15,981.87
2016,10,14,13,16,981.75
2016,10,14,13,17,981.78
2016,10,14,13,18,981.75
2016,10,14,13,19,981.75
2016,10,14,13,20,981.65
2016,10,14,13,21,981.55
2016,10,14,13,22,981.58
2016,10,14,13,23,981.51
2016,10,14,13,24,981.41
2016,10,14,13,25,981.44
2016,10,14,13,26,981.51
2016,10,14,13,27,981.44
2016,10,14,13,28,981.48
2016,10,14,13,29,981.48
2016,10,14,13,30,981.38
2016,10,14,13,31,981.38
2016,10,14,13,32,981.38
2016,10,14,13,33,981.34
2016,10,14,13,34,981.41
2016,10,14,13,35,981.34
2016,10,14,13,36,981.38
2016,10,14,13,37,981.38
2016,10,14,13,38,981.27
2016,10,14,13,39,981.21
2016,10,14,13,40,981.24
2016,10,14,13,41,981.24
2016,10,14,13,42,981.27
2016,10,14,13,43,981.10
2016,10,14,13,44,981.10
2016,10,14,13,45,981.14
2016,10,14,13,46,981.09
2016,10,14,13,47,980.97
2016,10,14,13,48,981.00
2016,10,14,13,49,981.07
2016,10,14,13,50,981.07
2016,10,14,13,51,981.07
2016,10,14,13,52,981.07
2016,10,14,13,53,981.04
2016,10,14,13,54,981.00
2016,10,14,13,55,980.90
2016,10,14,13,56,980.97
2016,10,14,13,57,980.97
2016,10,14,13,58,981.00
2016,10,14,13,59,980.94
2016,10,14,14,00,980.97
2016,10,14,14,01,980.97
2016,10,14,14,02,980.97
2016,10,14,14,03,980.90
2016,10,14,14,04,980.97
2016,10,14,14,05,980.94
2016,10,14,14,06,980.94
2016,10,14,14,07,980.83
2016,10,14,14,08,980.97
2016,10,14,14,09,980.87
2016,10,14,14,10,980.97
2016,10,14,14,11,981.04
2016,10,14,14,12,981.00
2016,10,14,14,13,981.01
2016,10,14,14,14,981.17
2016,10,14,14,15,981.32
2016,10,14,14,16,981.48
2016,10,14,14,17,981.48
2016,10,14,14,18,981.58
2016,10,14,14,19,981.60
2016,10,14,14,20,981.41
2016,10,14,14,21,981.68
2016,10,14,14,22,981.65
2016,10,14,14,23,981.71
2016,10,14,14,24,981.68
2016,10,14,14,25,981.71
2016,10,14,14,26,981.75
2016,10,14,14,27,981.78
2016,10,14,14,28,981.78
2016,10,14,14,29,981.85
2016,10,14,14,30,981.85
2016,10,14,14,31,981.88
2016,10,14,14,32,981.92
2016,10,14,14,33,981.92
2016,10,14,14,34,981.88
2016,10,14,14,35,981.99
2016,10,14,14,36,982.02
2016,10,14,14,37,981.99
2016,10,14,14,38,982.02
2016,10,14,16,56,988.62
2016,10,14,16,57,988.39
2016,10,14,16,58,988.35
2016,10,14,16,59,988.35
2016,10,14,17,00,988.45
2016,10,14,17,01,988.45
2016,10,14,17,02,988.59
2016,10,14,17,03,988.62
2016,10,14,17,04,988.66
2016,10,14,17,05,988.69
2016,10,14,17,06,988.69
2016,10,14,17,07,988.66
2016,10,14,17,08,988.76
2016,10,14,17,09,988.72
2016,10,14,17,10,988.76
2016,10,14,17,11,988.79
2016,10,14,17,12,988.83
2016,10,14,17,13,988.86
2016,10,14,17,14,988.96
2016,10,14,17,15,989.03
2016,10,14,17,16,989.03
2016,10,14,17,17,989.06
2016,10,14,17,18,989.10
2016,10,14,17,19,989.01
2016,10,14,17,20,989.03
2016,10,14,17,21,989.23
2016,10,14,17,22,989.23
2016,10,14,17,23,989.37
2016,10,14,17,24,989.33
2016,10,14,17,25,989.47
2016,10,14,17,26,989.50
2016,10,14,17,27,989.54
2016,10,14,17,28,989.57
2016,10,14,17,29,989.64
2016,10,14,17,30,989.71
2016,10,14,17,31,989.74
2016,10,14,17,32,989.88
2016,10,14,17,33,989.94
2016,10,14,17,34,989.88
2016,10,14,17,35,989.94
2016,10,14,17,36,989.88
2016,10,14,17,37,989.81
2016,10,14,17,38,989.98
2016,10,14,17,39,990.04
2016,10,14,17,40,990.01
2016,10,14,17,41,990.08
2016,10,14,17,42,990.04
2016,10,14,17,43,990.15
2016,10,14,17,44,990.15
2016,10,14,17,45,990.28
2016,10,14,17,46,990.28
2016,10,14,17,47,990.28
2016,10,14,17,48,990.25
2016,10,14,17,49,990.25
2016,10,14,17,50,990.25
2016,10,14,17,51,990.18
2016,10,14,17,52,990.28
2016,10,14,17,53,990.35
2016,10,14,17,54,990.35
2016,10,14,17,55,990.32
2016,10,14,17,56,990.38
2016,10,14,17,57,990.42
2016,10,14,17,58,990.45
2016,10,14,17,59,990.59
2016,10,14,18,00,990.59
2016,10,14,18,01,990.65
2016,10,14,18,02,990.65
2016,10,14,18,03,990.76
2016,10,14,18,04,990.72
2016,10,14,18,05,990.76
2016,10,14,18,06,990.72
2016,10,14,18,07,990.76
2016,10,14,18,08,990.79
2016,10,14,18,09,990.93
2016,10,14,18,10,991.03
2016,10,14,18,11,991.23
2016,10,14,18,12,991.30
2016,10,14,18,13,991.33
2016,10,14,18,14,991.33
2016,10,14,18,15,991.37
2016,10,14,18,16,991.43
2016,10,14,18,17,991.43
2016,10,14,18,18,991.43
2016,10,14,18,19,991.50
2016,10,14,18,20,991.47
2016,10,14,18,21,991.41
2016,10,14,18,22,991.54
2016,10,14,18,23,991.64
2016,10,14,18,24,991.64
2016,10,14,18,25,991.64
2016,10,14,18,26,991.60
2016,10,14,18,27,991.50
2016,10,14,18,28,991.57
2016,10,14,18,29,991.67
2016,10,14,18,30,991.77
2016,10,14,18,31,991.87
2016,10,14,18,32,991.84
2016,10,14,18,33,991.84
2016,10,14,18,34,991.67
2016,10,14,18,35,991.77
2016,10,14,18,36,991.87
2016,10,14,18,37,991.84
2016,10,14,18,38,991.87
2016,10,14,18,39,991.94
2016,10,14,18,40,991.94
2016,10,14,18,41,991.87
2016,10,14,18,42,991.94
2016,10,14,18,43,991.98
2016,10,14,18,44,991.98
2016,10,14,18,45,991.98
2016,10,14,18,46,992.04
2016,10,14,18,47,991.98
2016,10,14,18,48,992.04
2016,10,14,18,49,992.14
2016,10,14,18,50,992.18
2016,10,14,18,51,992.18
2016,10,14,18,52,992.14
2016,10,14,18,53,992.25
2016,10,14,18,54,992.28
2016,10,14,18,55,992.25